Powrót do katalogu

STARLINK-33935

AktywnyŁącznośćVLEO
NORAD 63791·PAYLOAD·🇺🇸 United States

Wystrzelony May 2, 2025 z Cape Canaveral Space Force Station

Loading…

Następne Przeloty (najbliższe 24 godziny)

TLE

ŚwieżeSource: CelesTrak SupGP

Epoka: Sep 15, 2026, 03:54 UTC

1 63791C 25091S   26258.16298611 -.00024036  00000+0 -87040-3 0  2586
2 63791  43.0003  62.8082 0001577 267.5808 174.2490 15.27596497    13

Śledź STARLINK-33935 w czasie rzeczywistym z AllMySat

Download on the App Store